GW4237 Weather Reports


time (UTC)temp
F
wind
direction
speed
knots
gust
knots
rain 1hr
in
rain 24hr
in
rain mn
in
humidity
%
barometer
mb
20260503204603 67 130 3.5 7.8 0.00 0.00 0.00 63 1014.6
20260503203058 68 113 2.6 7.8 0.00 0.00 0.00 62 1014.8
20260503201556 67 173 1.7 5.2 0.00 0.00 0.00 64 1014.9
20260503200053 66 197 1.7 6.1 0.00 0.00 0.00 66 1014.9
20260503194549 65 204 3.5 7.0 0.00 0.00 0.00 67 1015.1
20260503193100 63 130 3.5 7.0 0.00 0.00 0.00 71 1015.3
20260503191545 62 227 1.7 5.2 0.00 0.00 0.00 73 1015.7
20260503190058 62 227 2.6 7.8 0.00 0.00 0.00 73 1015.8
20260503184542 62 236 3.5 6.1 0.00 0.00 0.00 74 1016.0
20260503183055 62 237 1.7 6.1 0.00 0.00 0.00 74 1016.0
20260503181540 62 207 0.9 7.0 0.00 0.00 0.00 73 1015.9
20260503180050 62 199 0.9 5.2 0.00 0.00 0.00 72 1016.0
20260503174536 61 182 3.5 7.0 0.00 0.00 0.00 74 1015.8
20260503173044 61 242 3.5 7.0 0.00 0.00 0.00 75 1015.8
20260503171540 61 212 0.9 5.2 0.00 0.00 0.00 77 1015.7
20260503100107 59 217 0.9 4.3 0.00 0.00 0.00 90 1014.1
20260503081549 60 148 1.7 6.1 0.00 0.00 0.00 86 1014.5
20260503071548 60 159 1.7 4.3 0.00 0.00 0.00 86 1014.2
20260503054540 60 236 0.9 6.1 0.00 0.00 0.00 85 1013.9
20260503053035 61 244 1.7 6.1 0.00 0.00 0.00 84 1013.9
20260503051534 61 219 1.7 5.2 0.00 0.00 0.00 83 1014.1
20260503050034 62 207 1.7 5.2 0.00 0.00 0.00 81 1014.0
20260503044535 62 212 0.9 4.3 0.00 0.00 0.00 80 1014.0
20260503043032 62 234 1.7 4.3 0.00 0.00 0.00 81 1013.7
20260503041532 62 190 1.7 5.2 0.00 0.00 0.00 80 1013.5
20260503040032 62 213 2.6 5.2 0.00 0.00 0.00 78 1013.2
20260503034531 62 211 3.5 7.0 0.00 0.00 0.00 77 1012.9
20260503033041 63 166 3.5 7.0 0.00 0.00 0.00 77 1012.8
20260503031530 64 109 1.7 6.1 0.00 0.00 0.00 75 1012.6
20260503030030 64 171 2.6 7.0 0.00 0.00 0.00 74 1012.4
20260503024529 65 228 4.3 7.0 0.00 0.00 0.00 72 1012.1
20260503023028 66 211 3.5 7.8 0.00 0.00 0.00 71 1011.7
20260503021627 67 216 4.3 7.8 0.00 0.00 0.00 70 1011.4
20260503020027 68 190 4.3 7.8 0.00 0.00 0.00 69 1011.4
20260503014540 69 154 4.3 10.4 0.00 0.00 0.00 68 1011.5
20260503013030 69 177 3.5 7.0 0.00 0.00 0.00 66 1011.4
20260503011524 71 175 3.5 7.8 0.00 0.00 0.00 65 1011.4
20260503010025 71 192 2.6 7.0 0.00 0.00 0.00 64 1011.3
20260503004527 71 175 1.7 7.0 0.00 0.00 0.00 65 1011.4
20260503003023 72 225 3.5 8.7 0.00 0.00 0.00 64 1011.5
20260503001525 72 227 4.3 7.8 0.00 0.00 0.00 64 1011.5
20260503000022 72 226 5.2 7.8 0.00 0.00 0.00 64 1011.5
20260502234520 72 253 5.2 8.7 0.00 0.00 0.00 66 1011.5
20260502233019 72 213 4.3 7.8 0.00 0.00 0.00 64 1011.7
20260502231518 72 225 5.2 8.7 0.00 0.00 0.00 66 1011.5
20260502230017 73 244 4.3 9.6 0.00 0.00 0.00 66 1011.7
20260502224514 72 240 1.7 9.6 0.00 0.00 0.00 65 1011.9
20260502223013 72 205 3.5 7.8 0.00 0.00 0.00 66 1012.4
20260502221511 72 211 4.3 9.6 0.00 0.00 0.00 65 1012.7
20260502220008 72 257 5.2 11.3 0.00 0.00 0.00 67 1012.8
20260502214511 72 226 7.0 10.4 0.00 0.00 0.00 66 1013.1
20260502213006 73 227 4.3 9.6 0.00 0.00 0.00 65 1013.3
20260502211506 72 268 2.6 6.1 0.00 0.00 0.00 66 1013.4
20260502210110 71 206 2.6 7.0 0.00 0.00 0.00 67 1013.4